User: anonymous   Login
Location: Trois-Rivi�res
(46.3500°N, 72.5500°W)
Time: 20:09:38
(UTC-04:00)
Language:

SJ-11-01 - Orbit

View from above orbital plane
View from above orbital plane
View from above satellite
View from above satellite

Ground track
Ground track

The orbit data is extracted from the following two-line orbital elements,

1 36088U 09061A   17147.90144370 +.00000072 +00000-0 +24630-4 0  9997
2 36088 098.1381 196.0655 0011047 336.6687 023.4007 14.59941521401687
Epoch (UTC): 27 May 2017 21:38:04
Eccentricity: 0.0011047
inclination: 98.1381°
perigee height: 685 km
apogee height: 701 km
right ascension of ascending node: 196.0655°
argument of perigee: 336.6687°
revolutions per day: 14.59941521
mean anomaly at epoch: 23.4007°
orbit number at epoch: 40168

The dashed part of the orbit path shows where the satellite is in the earth's shadow,  

DLR